| time (UTC) | temp F | wind direction | speed knots | gust knots | rain 1hr in | rain 24hr in | rain mn in | humidity % | barometer mb |
| 20260505122245 | 56 | 51 | 2.6 | 3.5 | 0.00 | 0.00 | 0.00 | 82 | 1013.0 |
| 20260505121745 | 55 | 74 | 4.3 | 4.3 | 0.00 | 0.00 | 0.00 | 83 | 1013.0 |
| 20260505121244 | 55 | 109 | 2.6 | 2.6 | 0.00 | 0.00 | 0.00 | 86 | 1013.0 |
| 20260505120744 | 54 | 258 | 1.7 | 2.6 | 0.00 | 0.00 | 0.00 | 86 | 1013.0 |
| 20260505120243 | 54 | 169 | 2.6 | 3.5 | 0.00 | 0.00 | 0.00 | 86 | 1013.0 |
| 20260505115743 | 54 | 102 | 2.6 | 3.5 | 0.00 | 0.00 | 0.00 | 85 | 1013.0 |
| 20260505115242 | 53 | 10 | 1.7 | 1.7 | 0.00 | 0.00 | 0.00 | 86 | 1013.0 |
| 20260505114742 | 52 | 133 | 1.7 | 1.7 | 0.00 | 0.00 | 0.00 | 87 | 1013.0 |
| 20260505114241 | 52 | 67 | 2.6 | 3.5 | 0.00 | 0.00 | 0.00 | 86 | 1013.0 |
| 20260505113741 | 52 | 82 | 1.7 | 2.6 | 0.00 | 0.00 | 0.00 | 86 | 1013.0 |
| 20260505113240 | 52 | 50 | 2.6 | 3.5 | 0.00 | 0.00 | 0.00 | 86 | 1013.0 |
| 20260505112740 | 52 | 62 | 2.6 | 2.6 | 0.00 | 0.00 | 0.00 | 86 | 1012.0 |
| 20260505112239 | 52 | 82 | 2.6 | 3.5 | 0.00 | 0.00 | 0.00 | 85 | 1013.0 |
| 20260505111739 | 52 | 63 | 1.7 | 2.6 | 0.00 | 0.00 | 0.00 | 85 | 1013.0 |
| 20260505111238 | 52 | 68 | 2.6 | 2.6 | 0.00 | 0.00 | 0.00 | 84 | 1012.0 |
| 20260505110737 | 52 | 78 | 2.6 | 2.6 | 0.00 | 0.00 | 0.00 | 83 | 1012.0 |
| 20260505110237 | 52 | 63 | 2.6 | 3.5 | 0.00 | 0.00 | 0.00 | 82 | 1012.0 |
| 20260505101732 | 54 | 17 | 2.6 | 3.5 | 0.00 | 0.00 | 0.00 | 76 | 1012.0 |
| 20260505101231 | 54 | 81 | 3.5 | 3.5 | 0.00 | 0.00 | 0.00 | 75 | 1012.0 |
| 20260505100731 | 55 | 108 | 2.6 | 3.5 | 0.00 | 0.00 | 0.00 | 75 | 1012.0 |
| 20260505100231 | 55 | 52 | 0.0 | 1.7 | 0.00 | 0.00 | 0.00 | 75 | 1012.0 |
| 20260505095730 | 55 | 359 | 1.7 | 2.6 | 0.00 | 0.00 | 0.00 | 74 | 1012.0 |
| 20260505095229 | 55 | 139 | 1.7 | 2.6 | 0.00 | 0.00 | 0.00 | 74 | 1012.0 |
| 20260505094729 | 55 | 68 | 1.7 | 2.6 | 0.00 | 0.00 | 0.00 | 73 | 1012.0 |
| 20260505094229 | 55 | 102 | 1.7 | 1.7 | 0.00 | 0.00 | 0.00 | 73 | 1012.0 |
| 20260505093728 | 55 | 111 | 1.7 | 2.6 | 0.00 | 0.00 | 0.00 | 73 | 1012.0 |
| 20260505093228 | 55 | 213 | 1.7 | 2.6 | 0.00 | 0.00 | 0.00 | 75 | 1012.0 |
| 20260505092727 | 55 | 66 | 2.6 | 3.5 | 0.00 | 0.00 | 0.00 | 73 | 1012.0 |
| 20260505092227 | 55 | 34 | 1.7 | 2.6 | 0.00 | 0.00 | 0.00 | 73 | 1012.0 |
| 20260505091726 | 55 | 83 | 2.6 | 3.5 | 0.00 | 0.00 | 0.00 | 72 | 1012.0 |
| 20260505091225 | 55 | 126 | 0.0 | 2.6 | 0.00 | 0.00 | 0.00 | 72 | 1012.0 |
| 20260505090725 | 55 | 52 | 2.6 | 5.2 | 0.00 | 0.00 | 0.00 | 72 | 1012.0 |
| 20260505090225 | 55 | 333 | 1.7 | 2.6 | 0.00 | 0.00 | 0.00 | 72 | 1012.0 |
| 20260505085724 | 55 | 87 | 2.6 | 2.6 | 0.00 | 0.00 | 0.00 | 72 | 1012.0 |
| 20260505085223 | 55 | 65 | 1.7 | 1.7 | 0.00 | 0.00 | 0.00 | 73 | 1012.0 |
| 20260505084723 | 55 | 295 | 1.7 | 3.5 | 0.00 | 0.00 | 0.00 | 73 | 1012.0 |
| 20260505084222 | 55 | 71 | 1.7 | 3.5 | 0.00 | 0.00 | 0.00 | 72 | 1012.0 |
| 20260505083721 | 55 | 107 | 0.0 | 1.7 | 0.00 | 0.00 | 0.00 | 72 | 1012.0 |
| 20260505083221 | 55 | 290 | 0.0 | 1.7 | 0.00 | 0.00 | 0.00 | 73 | 1012.0 |
| 20260505082720 | 55 | 66 | 0.0 | 1.7 | 0.00 | 0.00 | 0.00 | 73 | 1012.0 |
| 20260505082220 | 55 | 135 | 0.0 | 1.7 | 0.00 | 0.00 | 0.00 | 73 | 1012.0 |
| 20260505081720 | 55 | 74 | 0.0 | 0.0 | 0.00 | 0.00 | 0.00 | 74 | 1012.0 |
| 20260505081219 | 55 | 76 | 0.0 | 0.0 | 0.00 | 0.00 | 0.00 | 74 | 1012.0 |
| 20260505080718 | 55 | 76 | 2.6 | 2.6 | 0.00 | 0.00 | 0.00 | 75 | 1012.0 |
| 20260505080218 | 55 | 113 | 1.7 | 1.7 | 0.00 | 0.00 | 0.00 | 74 | 1012.0 |
| 20260505075717 | 55 | 135 | 0.0 | 0.0 | 0.00 | 0.00 | 0.00 | 75 | 1011.0 |
| 20260505075216 | 55 | 91 | 0.0 | 1.7 | 0.00 | 0.00 | 0.00 | 74 | 1011.0 |
| 20260505074716 | 55 | 104 | 1.7 | 1.7 | 0.00 | 0.00 | 0.00 | 73 | 1011.0 |
| 20260505074215 | 56 | 97 | 1.7 | 1.7 | 0.00 | 0.00 | 0.00 | 73 | 1012.0 |
| 20260505073714 | 56 | 60 | 0.0 | 0.0 | 0.00 | 0.00 | 0.00 | 74 | 1011.0 |
| 20260505073214 | 56 | 71 | 0.0 | 2.6 | 0.00 | 0.00 | 0.00 | 74 | 1012.0 |
| 20260505072714 | 56 | 116 | 1.7 | 1.7 | 0.00 | 0.00 | 0.00 | 73 | 1012.0 |
| 20260505072213 | 56 | 126 | 1.7 | 2.6 | 0.00 | 0.00 | 0.00 | 73 | 1011.0 |
| 20260505071713 | 56 | 135 | 0.0 | 1.7 | 0.00 | 0.00 | 0.00 | 75 | 1011.0 |
| 20260505071212 | 57 | 104 | 0.0 | 0.0 | 0.00 | 0.00 | 0.00 | 75 | 1012.0 |
| 20260505070711 | 56 | 141 | 1.7 | 3.5 | 0.00 | 0.00 | 0.00 | 74 | 1012.0 |
| 20260505070211 | 56 | 130 | 0.0 | 2.6 | 0.00 | 0.00 | 0.00 | 73 | 1012.0 |
| 20260505065711 | 57 | 93 | 0.0 | 1.7 | 0.00 | 0.00 | 0.00 | 74 | 1011.0 |
| 20260505065210 | 57 | 69 | 0.0 | 1.7 | 0.00 | 0.00 | 0.00 | 73 | 1011.0 |
| 20260505064710 | 57 | 130 | 1.7 | 1.7 | 0.00 | 0.00 | 0.00 | 74 | 1011.0 |
| 20260505064209 | 57 | 89 | 1.7 | 1.7 | 0.00 | 0.00 | 0.00 | 74 | 1011.0 |
| 20260505063708 | 57 | 76 | 2.6 | 2.6 | 0.00 | 0.00 | 0.00 | 74 | 1012.0 |
| 20260505063208 | 57 | 94 | 1.7 | 1.7 | 0.00 | 0.00 | 0.00 | 74 | 1012.0 |
| 20260505062707 | 57 | 107 | 0.0 | 0.0 | 0.00 | 0.00 | 0.00 | 73 | 1011.0 |
| 20260505062207 | 57 | 119 | 1.7 | 1.7 | 0.00 | 0.00 | 0.00 | 74 | 1011.0 |
| 20260505061706 | 57 | 76 | 1.7 | 1.7 | 0.00 | 0.00 | 0.00 | 74 | 1011.0 |
| 20260505061206 | 57 | 47 | 0.0 | 1.7 | 0.00 | 0.00 | 0.00 | 75 | 1011.0 |
| 20260505060705 | 57 | 132 | 0.0 | 1.7 | 0.00 | 0.00 | 0.00 | 74 | 1011.0 |
| 20260505060205 | 57 | 106 | 0.0 | 1.7 | 0.00 | 0.00 | 0.00 | 73 | 1011.0 |
| 20260505055705 | 57 | 135 | 0.0 | 1.7 | 0.00 | 0.00 | 0.00 | 72 | 1011.0 |
| 20260505055205 | 57 | 137 | 1.7 | 1.7 | 0.00 | 0.00 | 0.00 | 72 | 1012.0 |
| 20260505054704 | 58 | 133 | 2.6 | 2.6 | 0.00 | 0.00 | 0.00 | 73 | 1011.0 |
| 20260505054204 | 58 | 77 | 1.7 | 1.7 | 0.00 | 0.00 | 0.00 | 72 | 1011.0 |
| 20260505053703 | 58 | 119 | 1.7 | 1.7 | 0.00 | 0.00 | 0.00 | 72 | 1012.0 |
| 20260505053203 | 58 | 69 | 2.6 | 2.6 | 0.00 | 0.00 | 0.00 | 73 | 1011.0 |
| 20260505052702 | 58 | 65 | 0.0 | 0.0 | 0.00 | 0.00 | 0.00 | 73 | 1011.0 |
| 20260505052202 | 58 | 86 | 1.7 | 2.6 | 0.00 | 0.00 | 0.00 | 72 | 1011.0 |
| 20260505051701 | 58 | 52 | 0.0 | 1.7 | 0.00 | 0.00 | 0.00 | 72 | 1011.0 |
| 20260505051201 | 58 | 28 | 1.7 | 1.7 | 0.00 | 0.00 | 0.00 | 72 | 1011.0 |
| 20260505050701 | 58 | 47 | 0.0 | 0.0 | 0.00 | 0.00 | 0.00 | 72 | 1011.0 |
| 20260505050200 | 58 | 131 | 0.0 | 1.7 | 0.00 | 0.00 | 0.00 | 72 | 1011.0 |
| 20260505041656 | 59 | 160 | 1.7 | 1.7 | 0.00 | 0.00 | 0.00 | 70 | 1011.0 |
| 20260505041155 | 59 | 122 | 1.7 | 2.6 | 0.00 | 0.00 | 0.00 | 71 | 1011.0 |
| 20260505040655 | 59 | 124 | 0.0 | 0.0 | 0.00 | 0.00 | 0.00 | 69 | 1011.0 |
| 20260505040154 | 59 | 133 | 1.7 | 1.7 | 0.00 | 0.00 | 0.00 | 70 | 1011.0 |
| 20260505035654 | 59 | 71 | 1.7 | 2.6 | 0.00 | 0.00 | 0.00 | 70 | 1011.0 |
| 20260505035154 | 60 | 44 | 0.0 | 2.6 | 0.00 | 0.00 | 0.00 | 69 | 1011.0 |
| 20260505034653 | 60 | 50 | 0.0 | 1.7 | 0.00 | 0.00 | 0.00 | 68 | 1011.0 |
| 20260505034153 | 60 | 49 | 1.7 | 1.7 | 0.00 | 0.00 | 0.00 | 67 | 1011.0 |
| 20260505033652 | 61 | 37 | 0.0 | 0.0 | 0.00 | 0.00 | 0.00 | 66 | 1011.0 |
| 20260505033152 | 60 | 319 | 1.7 | 1.7 | 0.00 | 0.00 | 0.00 | 66 | 1011.0 |
| 20260505032651 | 60 | 40 | 0.0 | 0.0 | 0.00 | 0.00 | 0.00 | 66 | 1011.0 |
| 20260505032151 | 61 | 101 | 0.0 | 0.0 | 0.00 | 0.00 | 0.00 | 66 | 1011.0 |
| 20260505031650 | 61 | 134 | 1.7 | 1.7 | 0.00 | 0.00 | 0.00 | 66 | 1011.0 |
| 20260505031150 | 61 | 120 | 1.7 | 1.7 | 0.00 | 0.00 | 0.00 | 66 | 1011.0 |
| 20260505030649 | 61 | 62 | 0.0 | 1.7 | 0.00 | 0.00 | 0.00 | 65 | 1011.0 |
| 20260505030149 | 61 | 89 | 0.0 | 1.7 | 0.00 | 0.00 | 0.00 | 67 | 1011.0 |
| 20260505025648 | 61 | 58 | 2.6 | 2.6 | 0.00 | 0.00 | 0.00 | 67 | 1011.0 |
| 20260505025148 | 62 | 42 | 1.7 | 2.6 | 0.00 | 0.00 | 0.00 | 67 | 1012.0 |
| 20260505024648 | 62 | 67 | 0.0 | 0.0 | 0.00 | 0.00 | 0.00 | 66 | 1012.0 |
| 20260505024147 | 62 | 139 | 0.0 | 1.7 | 0.00 | 0.00 | 0.00 | 64 | 1012.0 |
| 20260505023646 | 62 | 104 | 0.0 | 0.0 | 0.00 | 0.00 | 0.00 | 64 | 1012.0 |
| 20260505023146 | 63 | 145 | 1.7 | 1.7 | 0.00 | 0.00 | 0.00 | 63 | 1011.0 |
| 20260505022645 | 63 | 122 | 0.0 | 0.0 | 0.00 | 0.00 | 0.00 | 63 | 1012.0 |
| 20260505022145 | 63 | 128 | 1.7 | 1.7 | 0.00 | 0.00 | 0.00 | 63 | 1012.0 |
| 20260505021644 | 63 | 72 | 0.0 | 2.6 | 0.00 | 0.00 | 0.00 | 62 | 1012.0 |
| 20260505021144 | 63 | 206 | 0.0 | 0.0 | 0.00 | 0.00 | 0.00 | 62 | 1011.0 |
| 20260505020643 | 63 | 29 | 0.0 | 0.0 | 0.00 | 0.00 | 0.00 | 63 | 1011.0 |
| 20260505020143 | 63 | 13 | 0.0 | 1.7 | 0.00 | 0.00 | 0.00 | 63 | 1011.0 |
| 20260505015642 | 63 | 110 | 0.0 | 0.0 | 0.00 | 0.00 | 0.00 | 62 | 1011.0 |
| 20260505015142 | 63 | 75 | 0.0 | 0.0 | 0.00 | 0.00 | 0.00 | 61 | 1011.0 |
| 20260505014641 | 64 | 77 | 0.0 | 0.0 | 0.00 | 0.00 | 0.00 | 61 | 1011.0 |
| 20260505014141 | 64 | 203 | 0.0 | 0.0 | 0.00 | 0.00 | 0.00 | 61 | 1011.0 |
| 20260505013640 | 64 | 153 | 1.7 | 2.6 | 0.00 | 0.00 | 0.00 | 61 | 1011.0 |
| 20260505013139 | 64 | 154 | 1.7 | 1.7 | 0.00 | 0.00 | 0.00 | 61 | 1011.0 |
| 20260505012639 | 64 | 142 | 0.0 | 0.0 | 0.00 | 0.00 | 0.00 | 60 | 1011.0 |
| 20260505012139 | 65 | 135 | 0.0 | 0.0 | 0.00 | 0.00 | 0.00 | 57 | 1011.0 |
| 20260505011638 | 65 | 22 | 0.0 | 1.7 | 0.00 | 0.00 | 0.00 | 57 | 1011.0 |
| 20260505011138 | 65 | 63 | 0.0 | 0.0 | 0.00 | 0.00 | 0.00 | 56 | 1011.0 |
| 20260505010638 | 66 | 286 | 0.0 | 1.7 | 0.00 | 0.00 | 0.00 | 56 | 1011.0 |
| 20260505010137 | 66 | 224 | 0.0 | 1.7 | 0.00 | 0.00 | 0.00 | 55 | 1011.0 |
| 20260505005637 | 66 | 135 | 0.0 | 0.0 | 0.00 | 0.00 | 0.00 | 54 | 1011.0 |
| 20260505005136 | 67 | 70 | 0.0 | 0.0 | 0.00 | 0.00 | 0.00 | 54 | 1011.0 |
| 20260505004636 | 67 | 58 | 1.7 | 1.7 | 0.00 | 0.00 | 0.00 | 54 | 1011.0 |
| 20260505004136 | 67 | 157 | 0.0 | 0.0 | 0.00 | 0.00 | 0.00 | 54 | 1011.0 |
| 20260505003635 | 68 | 124 | 0.0 | 1.7 | 0.00 | 0.00 | 0.00 | 54 | 1011.0 |
| 20260505003135 | 68 | 261 | 1.7 | 1.7 | 0.00 | 0.00 | 0.00 | 54 | 1011.0 |
| 20260505002634 | 68 | 104 | 0.0 | 1.7 | 0.00 | 0.00 | 0.00 | 54 | 1011.0 |
| 20260505002133 | 69 | 63 | 0.0 | 2.6 | 0.00 | 0.00 | 0.00 | 54 | 1011.0 |
| 20260505001633 | 69 | 67 | 0.0 | 1.7 | 0.00 | 0.00 | 0.00 | 52 | 1011.0 |
| 20260505001132 | 69 | 176 | 1.7 | 2.6 | 0.00 | 0.00 | 0.00 | 51 | 1011.0 |
| 20260505000632 | 70 | 187 | 0.0 | 0.0 | 0.00 | 0.00 | 0.00 | 51 | 1011.0 |
| 20260505000131 | 70 | 224 | 0.0 | 0.0 | 0.00 | 0.00 | 0.00 | 50 | 1011.0 |
| 20260504235631 | 70 | 75 | 0.0 | 0.0 | 0.00 | 0.00 | 0.00 | 50 | 1011.0 |
| 20260504235130 | 71 | 200 | 0.0 | 1.7 | 0.00 | 0.00 | 0.00 | 48 | 1010.0 |
| 20260504234630 | 71 | 331 | 1.7 | 1.7 | 0.00 | 0.00 | 0.00 | 49 | 1010.0 |
| 20260504234129 | 71 | 292 | 0.0 | 1.7 | 0.00 | 0.00 | 0.00 | 48 | 1010.0 |
| 20260504233629 | 71 | 70 | 0.0 | 1.7 | 0.00 | 0.00 | 0.00 | 48 | 1010.0 |
| 20260504233128 | 72 | 253 | 1.7 | 1.7 | 0.00 | 0.00 | 0.00 | 47 | 1010.0 |
| 20260504232628 | 72 | 135 | 0.0 | 0.0 | 0.00 | 0.00 | 0.00 | 46 | 1010.0 |
| 20260504232127 | 72 | 279 | 1.7 | 1.7 | 0.00 | 0.00 | 0.00 | 46 | 1010.0 |
| 20260504231626 | 72 | 117 | 0.0 | 0.0 | 0.00 | 0.00 | 0.00 | 45 | 1010.0 |
| 20260504231126 | 73 | 43 | 0.0 | 1.7 | 0.00 | 0.00 | 0.00 | 43 | 1010.0 |
| 20260504230625 | 73 | 152 | 1.7 | 1.7 | 0.00 | 0.00 | 0.00 | 45 | 1010.0 |
| 20260504230125 | 73 | 104 | 2.6 | 2.6 | 0.00 | 0.00 | 0.00 | 45 | 1010.0 |
| 20260504225624 | 73 | 339 | 0.0 | 1.7 | 0.00 | 0.00 | 0.00 | 42 | 1010.0 |
| 20260504225124 | 73 | 4 | 1.7 | 1.7 | 0.00 | 0.00 | 0.00 | 42 | 1010.0 |
| 20260504224623 | 74 | 224 | 0.0 | 1.7 | 0.00 | 0.00 | 0.00 | 42 | 1010.0 |
| 20260504224123 | 74 | 117 | 0.0 | 2.6 | 0.00 | 0.00 | 0.00 | 40 | 1010.0 |
| 20260504223622 | 74 | 44 | 0.0 | 0.0 | 0.00 | 0.00 | 0.00 | 41 | 1010.0 |
| 20260504223122 | 74 | 162 | 0.0 | 0.0 | 0.00 | 0.00 | 0.00 | 40 | 1011.0 |
| 20260504222621 | 74 | 46 | 1.7 | 1.7 | 0.00 | 0.00 | 0.00 | 42 | 1011.0 |
| 20260504222121 | 75 | 268 | 0.0 | 1.7 | 0.00 | 0.00 | 0.00 | 42 | 1010.0 |
| 20260504221620 | 75 | 69 | 0.0 | 4.3 | 0.00 | 0.00 | 0.00 | 40 | 1011.0 |
| 20260504221119 | 75 | 312 | 0.0 | 1.7 | 0.00 | 0.00 | 0.00 | 43 | 1011.0 |
| 20260504220619 | 77 | 86 | 4.3 | 5.2 | 0.00 | 0.00 | 0.00 | 42 | 1010.0 |
| 20260504220118 | 77 | 280 | 1.7 | 2.6 | 0.00 | 0.00 | 0.00 | 41 | 1010.0 |
| 20260504215618 | 77 | 48 | 2.6 | 3.5 | 0.00 | 0.00 | 0.00 | 42 | 1011.0 |
| 20260504215117 | 78 | 12 | 2.6 | 2.6 | 0.00 | 0.00 | 0.00 | 41 | 1011.0 |
| 20260504214617 | 78 | 216 | 1.7 | 3.5 | 0.00 | 0.00 | 0.00 | 40 | 1011.0 |
| 20260504214116 | 78 | 356 | 0.0 | 2.6 | 0.00 | 0.00 | 0.00 | 42 | 1011.0 |
| 20260504213616 | 79 | 147 | 2.6 | 2.6 | 0.00 | 0.00 | 0.00 | 43 | 1011.0 |
| 20260504213115 | 79 | 298 | 1.7 | 1.7 | 0.00 | 0.00 | 0.00 | 40 | 1011.0 |
| 20260504212615 | 79 | 166 | 1.7 | 2.6 | 0.00 | 0.00 | 0.00 | 42 | 1011.0 |
| 20260504212114 | 79 | 46 | 2.6 | 2.6 | 0.00 | 0.00 | 0.00 | 43 | 1011.0 |
| 20260504211614 | 79 | 241 | 1.7 | 1.7 | 0.00 | 0.00 | 0.00 | 41 | 1011.0 |
| 20260504211113 | 79 | 12 | 5.2 | 5.2 | 0.00 | 0.00 | 0.00 | 40 | 1011.0 |
| 20260504210613 | 79 | 229 | 0.0 | 1.7 | 0.00 | 0.00 | 0.00 | 44 | 1011.0 |
| 20260504210112 | 78 | 142 | 1.7 | 2.6 | 0.00 | 0.00 | 0.00 | 42 | 1011.0 |
| 20260504205612 | 79 | 235 | 3.5 | 6.1 | 0.00 | 0.00 | 0.00 | 40 | 1011.0 |
| 20260504205111 | 79 | 293 | 2.6 | 4.3 | 0.00 | 0.00 | 0.00 | 38 | 1011.0 |
| 20260504204610 | 79 | 109 | 1.7 | 5.2 | 0.00 | 0.00 | 0.00 | 37 | 1011.0 |
| 20260504204110 | 79 | 287 | 1.7 | 1.7 | 0.00 | 0.00 | 0.00 | 40 | 1011.0 |
| 20260504203609 | 79 | 95 | 2.6 | 4.3 | 0.00 | 0.00 | 0.00 | 39 | 1011.0 |
| 20260504203109 | 79 | 99 | 4.3 | 4.3 | 0.00 | 0.00 | 0.00 | 39 | 1011.0 |
| 20260504202608 | 79 | 314 | 0.0 | 1.7 | 0.00 | 0.00 | 0.00 | 43 | 1011.0 |
| 20260504202108 | 79 | 111 | 2.6 | 2.6 | 0.00 | 0.00 | 0.00 | 42 | 1011.0 |
| 20260504201607 | 79 | 314 | 1.7 | 1.7 | 0.00 | 0.00 | 0.00 | 43 | 1011.0 |
| 20260504201107 | 79 | 248 | 2.6 | 2.6 | 0.00 | 0.00 | 0.00 | 40 | 1012.0 |
| 20260504200606 | 79 | 103 | 2.6 | 2.6 | 0.00 | 0.00 | 0.00 | 43 | 1011.0 |
| 20260504200106 | 79 | 113 | 2.6 | 2.6 | 0.00 | 0.00 | 0.00 | 41 | 1012.0 |
| 20260504195605 | 79 | 49 | 2.6 | 4.3 | 0.00 | 0.00 | 0.00 | 43 | 1012.0 |
| 20260504195105 | 79 | 310 | 0.0 | 0.0 | 0.00 | 0.00 | 0.00 | 45 | 1012.0 |
| 20260504194604 | 79 | 128 | 1.7 | 3.5 | 0.00 | 0.00 | 0.00 | 42 | 1012.0 |
| 20260504194104 | 79 | 260 | 0.0 | 1.7 | 0.00 | 0.00 | 0.00 | 44 | 1012.0 |
| 20260504193604 | 79 | 103 | 2.6 | 2.6 | 0.00 | 0.00 | 0.00 | 43 | 1012.0 |
| 20260504193103 | 80 | 232 | 1.7 | 2.6 | 0.00 | 0.00 | 0.00 | 40 | 1012.0 |
| 20260504192602 | 79 | 316 | 3.5 | 4.3 | 0.00 | 0.00 | 0.00 | 42 | 1012.0 |
| 20260504192102 | 79 | 211 | 1.7 | 1.7 | 0.00 | 0.00 | 0.00 | 42 | 1012.0 |
| 20260504191602 | 79 | 337 | 3.5 | 3.5 | 0.00 | 0.00 | 0.00 | 44 | 1012.0 |
| 20260504191101 | 78 | 141 | 0.0 | 1.7 | 0.00 | 0.00 | 0.00 | 41 | 1012.0 |
| 20260504190600 | 78 | 21 | 0.0 | 1.7 | 0.00 | 0.00 | 0.00 | 43 | 1012.0 |
| 20260504190100 | 78 | 144 | 1.7 | 2.6 | 0.00 | 0.00 | 0.00 | 40 | 1012.0 |
| 20260504185559 | 78 | 104 | 1.7 | 3.5 | 0.00 | 0.00 | 0.00 | 41 | 1012.0 |
| 20260504185059 | 78 | 346 | 1.7 | 2.6 | 0.00 | 0.00 | 0.00 | 45 | 1013.0 |
| 20260504184558 | 78 | 209 | 1.7 | 1.7 | 0.00 | 0.00 | 0.00 | 45 | 1013.0 |
| 20260504184057 | 79 | 283 | 1.7 | 2.6 | 0.00 | 0.00 | 0.00 | 44 | 1013.0 |
| 20260504183557 | 77 | 268 | 0.0 | 1.7 | 0.00 | 0.00 | 0.00 | 47 | 1013.0 |
| 20260504183056 | 77 | 49 | 2.6 | 4.3 | 0.00 | 0.00 | 0.00 | 42 | 1013.0 |
| 20260504182556 | 77 | 10 | 3.5 | 6.1 | 0.00 | 0.00 | 0.00 | 43 | 1013.0 |
| 20260504182055 | 76 | 306 | 2.6 | 7.8 | 0.00 | 0.00 | 0.00 | 42 | 1013.0 |
| 20260504181555 | 77 | 12 | 4.3 | 6.1 | 0.00 | 0.00 | 0.00 | 42 | 1013.0 |
| 20260504181054 | 75 | 2 | 1.7 | 2.6 | 0.00 | 0.00 | 0.00 | 48 | 1013.0 |
| 20260504180553 | 76 | 58 | 2.6 | 4.3 | 0.00 | 0.00 | 0.00 | 43 | 1013.0 |
| 20260504180053 | 75 | 153 | 1.7 | 2.6 | 0.00 | 0.00 | 0.00 | 45 | 1013.0 |
| 20260504175553 | 76 | 163 | 1.7 | 2.6 | 0.00 | 0.00 | 0.00 | 44 | 1013.0 |
| 20260504175052 | 75 | 88 | 2.6 | 3.5 | 0.00 | 0.00 | 0.00 | 42 | 1013.0 |
| 20260504174552 | 76 | 281 | 1.7 | 2.6 | 0.00 | 0.00 | 0.00 | 44 | 1013.0 |
| 20260504174051 | 75 | 231 | 1.7 | 2.6 | 0.00 | 0.00 | 0.00 | 50 | 1014.0 |
| 20260504173550 | 74 | 80 | 1.7 | 2.6 | 0.00 | 0.00 | 0.00 | 43 | 1014.0 |
| 20260504173050 | 74 | 96 | 0.0 | 1.7 | 0.00 | 0.00 | 0.00 | 43 | 1014.0 |
| 20260504172549 | 73 | 156 | 1.7 | 1.7 | 0.00 | 0.00 | 0.00 | 46 | 1014.0 |
| 20260504172049 | 74 | 149 | 5.2 | 6.1 | 0.00 | 0.00 | 0.00 | 44 | 1014.0 |
| 20260504171548 | 73 | 105 | 0.0 | 2.6 | 0.00 | 0.00 | 0.00 | 47 | 1014.0 |
| 20260504171048 | 73 | 167 | 2.6 | 2.6 | 0.00 | 0.00 | 0.00 | 46 | 1014.0 |
| 20260504170547 | 73 | 50 | 2.6 | 4.3 | 0.00 | 0.00 | 0.00 | 47 | 1014.0 |
| 20260504151034 | 68 | 23 | 0.0 | 1.7 | 0.00 | 0.00 | 0.00 | 53 | 1015.0 |
| 20260504150533 | 68 | 41 | 2.6 | 2.6 | 0.00 | 0.00 | 0.00 | 48 | 1016.0 |
| 20260504141026 | 64 | 94 | 1.7 | 2.6 | 0.00 | 0.00 | 0.00 | 56 | 1016.0 |
| 20260504140526 | 64 | 193 | 0.0 | 4.3 | 0.00 | 0.00 | 0.00 | 57 | 1016.0 |
| 20260504130518 | 57 | 133 | 1.7 | 1.7 | 0.00 | 0.00 | 0.00 | 70 | 1016.0 |